Location: ?????
(55.6500°N, 37.2500°E)
Time: 11:57:57
(UTC+00:00)

Cosmos 1110 Rocket - Pass Details

Date: 19 May 2025
Orbit: 748 x 777 km, 74.0° (Epoch: 13 June)

Event Time Altitude Azimuth Distance (km) Brightness Sun altitude
Rises 22:15:44 0° 331° (NNW) 3,273 8.1 -13.7°
Reaches altitude 10° 22:18:08 10° 331° (NNW) 2,340 7.2 -13.6°
Maximum altitude 22:23:28 85° 244° (WSW) 786 4.0 -13.4°
Enters shadow 22:28:25 12° 156° (SSE) 2,193 5.9 -13.3°
